星链-37862(STARLINK-37862)

导读

### STARLINK-37862(NORAD 69551)卫星摘要 STARLINK-37862是美国SpaceX公司星链(Starlink)低轨互联网星座的组成卫星,NORAD编号为69551,所属批次大概率为2025年发射的星链V2 Mini组网任务批次,设计寿命5-7年。该卫星运行于低地球轨道,轨道周期约94.3分钟,主要承担全球卫星互联网接入服务功能。截至2026年6月,该卫星属于星链星座在轨运行的约1万颗活跃卫星之一,为全球偏远地区、航空航海等场景提供低时延、高速率的网络接入支持。(全文约148字)

基本信息
目录编号:
69551
目录名称:
STARLINK-37862
国际标识:
2026-135F
轨道中心:
EARTH
卫星名称:
星链-37862
卫星全名:
星链-37862(STARLINK-37862)
卫星状态:
在轨 (已飞行12 天)
发射日期:
2026-06-15 UTC
国别 :
美国 (US)
星等 :
--
轨道信息
数据来源 国际轨道数据
星历时间: 2026-06-27T08:30:54+0800
19小时前
查看轨道信息
半长轴: 6705.99km
偏心率: 0.0000808
轨道倾角: 97.283°
近地点辐角 117.825°
升交点赤经 205.600°
平近点角 242.310°
近地点: 327.311km
远地点: 328.395km
周期: 91.087分钟
每日圈数: 15.809146
详细信息
固有亮度:
5
最大亮度:
2.5
卫星平台:
Starlink V1.0
覆盖范围:
全球
运营商:
太空探索技术公司
运营商所在国:
美国
制造商(研发单位):
太空探索技术公司
制造商所在国:
美国
使用方式:
暂无
卫星简介
Starlink 计划是 SpaceX 推出的全球卫星互联网项目,通过发射低轨道卫星,为全球尤其是偏远地区提供高速、低延迟的互联网服务。自 2019 年起,Starlink 已部署数千颗卫星,旨在缩小全球数字鸿沟,推动互联网普及。该项目还为军事、航空等行业提供通信支持,带来广泛经济效益。
2D轨道图
3D轨道图
轨道高度分析图
轨道倾角分析图
轨道综合分析图
查看轨道综合分析图